Terminal Aerodrome Forecast
Issued by NWS

Home | Current Version | Previous Version | Text Only | Print | Product List | Glossary On
Versions: 1 2 3 4 5 6 7 8 9 10 11 12 13 14 15 16 17 18 19 20 21 22 23 24 25 26 27 28
000
FTUS43 KDTX 071509 AAA
TAFYIP
TAF AMD
KYIP 071509Z 0715/0812 22011G20KT 6SM -SHRA SCT013 BKN028 BKN080
      TEMPO 0716/0719 2SM SHRA BKN012 OVC040
     FM071900 32012KT 6SM -SHRA BKN009 OVC022
     FM072200 01007KT P6SM BKN025 BKN040
     FM080400 04006KT P6SM SCT040=

USA.gov is the U.S. government's official web portal to all federal, state and local government web resources and services.